KCQM

Details ICAO KCQM
Name COOK MUNI
Region United States
Timezone America/Chicago (UTC-5.0)
Plans Departing 1
Arriving 1
Stats Elevation 1,327 ft / 404 m (AMSL)
Location 47.821905° -92.689425°
Runways 1
Magnetic Variation 0.671° W
Sunrise 2018-05-24 10:24:01 UTC / 2018-05-24 05:24:01 Local
Sunset 2018-05-25 01:54:05 UTC / 2018-05-24 20:54:05 Local
Advertisement - Login to hide

Runways

ID Width Length Bearing (true) Bearing (mag) Surface Threshold Offset Overrun Length
13 75 ft / 23 m 3,198 ft / 975 m 137.07° 137.74° Asphalt 0 ft / 0 m 0 ft / 0 m
31 75 ft / 23 m 3,198 ft / 975 m 317.08° 317.75° Asphalt 0 ft / 0 m 0 ft / 0 m

Map

Weather


0- 5 10 15 20 25 30 35+ Temperature / ° C

Clouds and Precipitation
Forecast for 2018-05-24 12:00 UTC. Updated an hour ago

Ground ~20,000 ft ~40,000 ft Winds

METAR

KCQM 241215Z AUTO 16004KT 10SM BKN100 19/16 A3003 RMK AO2 LTG DSNT SW THRU NW

TAF

Not found

Frequencies

Recorded 118.17 MHz AWOS 3
Unicom 122.90 MHz CTAF
Warning: Do not use this data for real-world aviation or navigation. No guarantee of current accuracy is given.